Theta_e
344 345 348 349 350 349 348 348 348 348 348 349 349 348 348 348 348 347 348 348 348 347 347 346 345 344 344 342 340 340 341 341 340 337 335 336 337 338 338 339 340 340 340 339 339 338 339 340 340 340 340 341 341 342 341 341 340 341 342 341 341 341 342 342 342 342 341 340 341 340 341 342 341 341 341 340 340 340 340 340 340 337 340 342 341
343 346 349 349 350 349 348 348 347 348 348 348 348 348 348 347 347 347 347 348 347 347 347 346 345 344 343 343 342 341 340 339 338 338 339 340 340 338 337 336 337 337 336 337 337 338 340 341 341 341 341 340 341 341 340 340 339 339 340 340 341 341 341 342 341 341 341 341 342 342 340 340 339 341 341 340 340 341 340 339 339 339 340 341 341
345 346 347 350 350 349 348 348 348 348 348 348 348 348 348 348 348 348 348 348 347 346 346 345 344 343 343 342 339 338 337 337 337 340 340 338 338 336 336 337 337 336 337 338 337 342 341 342 342 341 340 339 338 338 339 338 337 339 340 340 340 341 341 341 340 340 340 340 340 340 340 339 339 339 339 340 341 341 340 339 339 338 339 340 339
344 346 348 349 350 348 347 347 347 347 347 348 348 348 348 348 348 348 348 347 346 346 345 345 343 343 342 342 341 339 339 340 339 337 337 338 337 336 337 338 338 338 337 338 339 339 339 338 338 339 338 338 337 337 337 336 336 337 339 339 340 341 341 340 340 339 339 339 339 339 339 339 339 339 339 339 340 341 340 339 339 339 339 339 339
344 345 347 350 350 349 347 347 347 347 348 348 348 347 347 349 348 348 348 347 346 345 344 344 343 342 341 340 340 338 336 336 336 336 337 337 337 337 338 337 336 336 336 336 338 338 338 338 338 338 338 337 337 337 336 336 335 334 337 340 340 340 340 339 339 339 338 338 340 340 338 338 339 338 339 340 340 339 339 338 338 339 339 339 338
345 346 347 348 349 348 347 347 347 347 347 346 346 346 346 346 347 348 347 347 346 345 344 343 342 342 339 339 339 338 338 338 338 337 337 338 337 336 335 335 336 336 336 336 337 338 337 337 336 337 336 336 336 336 336 336 336 336 338 340 339 339 339 339 338 338 338 338 340 338 338 339 338 337 339 339 340 339 339 338 338 338 338 338 337
345 346 346 347 347 349 347 348 348 348 348 346 345 345 345 346 346 348 346 346 345 344 344 342 342 341 340 338 338 340 338 337 335 337 337 335 337 337 337 336 336 336 335 335 336 337 336 336 337 336 336 336 336 336 336 335 336 337 339 340 339 339 338 338 338 338 338 338 337 337 337 338 339 340 339 339 338 339 339 339 339 339 339 339 337
346 346 346 347 348 348 347 348 348 348 347 347 346 345 343 344 345 344 346 344 345 344 343 342 341 339 339 337 338 339 336 337 337 337 337 337 337 337 335 335 336 336 335 335 336 335 336 336 336 336 337 337 337 336 336 337 337 338 338 339 338 338 338 337 337 337 338 334 337 337 337 338 338 338 339 340 339 339 338 338 338 338 339 338 339
344 346 347 348 348 346 347 348 349 348 347 347 346 345 344 342 343 343 343 344 342 343 343 341 340 339 339 338 339 338 337 336 336 337 336 337 336 334 334 334 335 335 334 334 334 335 335 334 336 336 337 337 337 336 336 336 337 338 338 338 338 338 337 337 336 337 334 335 336 337 338 337 338 338 338 339 339 339 340 338 339 339 338 339 335
344 346 347 347 349 345 346 347 349 348 347 347 347 346 344 342 342 342 342 341 340 343 343 341 339 339 339 340 339 337 335 336 337 337 336 335 334 335 335 335 336 335 335 335 335 334 335 335 335 336 337 336 336 336 336 336 337 338 338 337 338 337 337 336 335 336 334 335 336 337 338 341 338 337 338 339 339 339 338 337 339 339 338 336 336
344 346 347 347 349 344 346 348 349 348 347 347 347 346 344 343 342 341 341 340 341 344 344 341 340 340 339 338 338 337 338 336 336 336 335 336 335 335 334 335 335 335 335 335 334 334 334 334 335 335 336 336 335 334 335 335 337 337 338 337 337 337 335 335 337 333 335 335 335 336 337 339 338 339 338 338 339 338 337 337 338 337 337 337 336
344 346 347 347 348 343 345 347 348 348 347 346 346 346 344 343 341 341 341 340 340 343 344 342 341 340 339 338 338 338 339 338 338 336 333 335 334 335 335 335 335 335 335 334 334 334 334 334 334 335 335 335 334 334 334 335 336 338 337 337 337 336 335 333 332 333 335 334 335 336 337 336 337 338 339 338 338 339 338 338 337 338 338 337 337
344 345 347 348 349 343 344 345 346 347 347 346 346 345 344 343 341 341 341 341 340 342 344 344 342 341 339 338 338 339 339 338 337 336 336 336 334 335 335 335 334 334 334 334 334 334 333 334 334 334 334 334 334 334 334 335 336 338 338 337 336 335 333 332 332 333 333 334 335 336 336 338 338 338 338 338 338 338 338 337 337 338 338 337 336
344 344 346 347 347 346 342 343 344 345 346 346 346 345 344 343 342 342 342 341 343 343 345 344 343 341 339 338 338 339 338 337 336 337 336 336 334 334 333 335 334 334 334 334 333 334 334 333 334 334 334 334 333 333 333 335 336 337 337 336 335 333 330 334 332 332 332 332 332 333 335 336 339 337 337 338 338 337 337 337 337 337 337 337 335
343 345 346 346 347 348 345 341 343 343 345 345 345 345 344 343 343 343 342 342 344 346 345 344 343 341 339 338 337 337 336 337 336 338 339 337 335 335 333 334 335 334 334 333 334 334 334 334 333 334 334 333 333 333 332 333 334 336 336 335 333 331 329 331 330 331 331 330 331 330 332 334 332 336 336 337 337 337 335 335 335 336 336 335 335
346 345 346 345 348 348 348 345 339 340 341 342 342 343 344 343 343 343 343 343 345 345 345 345 343 341 340 339 337 337 338 337 340 340 339 339 336 336 335 334 334 334 333 334 333 333 333 333 333 333 333 333 332 333 332 331 331 332 333 333 331 329 327 328 331 330 329 329 329 328 329 329 328 332 334 335 336 336 335 334 335 335 335 335 335
344 345 344 344 347 347 347 348 344 337 338 338 339 340 342 343 343 344 345 347 346 345 345 345 344 341 342 342 340 339 338 338 339 339 338 339 340 338 338 335 333 334 334 333 333 333 332 333 333 333 333 332 332 332 332 331 330 330 330 330 329 326 326 325 329 329 328 328 328 327 329 329 329 331 331 331 335 335 335 335 333 334 334 334 336
344 344 343 344 345 346 346 348 348 346 347 340 336 337 339 342 341 342 343 345 345 345 345 345 344 342 341 340 340 340 340 340 339 338 337 337 336 335 336 337 334 334 333 334 333 333 333 332 333 332 333 332 332 332 331 331 329 329 328 328 326 324 324 322 329 329 328 329 328 328 328 329 329 330 332 331 333 336 335 334 335 334 334 335 335
343 343 342 343 343 346 346 347 347 346 346 345 345 342 335 338 339 339 340 342 343 342 341 341 341 340 339 339 339 339 337 337 337 337 336 334 334 332 332 336 334 334 333 333 333 333 333 333 333 333 333 332 332 332 332 332 332 329 328 327 325 323 320 325 328 329 328 328 328 327 328 329 329 331 331 332 331 334 336 334 334 334 334 334 335
341 341 342 343 343 344 345 346 346 346 346 346 345 345 337 334 336 337 337 339 340 339 337 337 337 337 336 335 335 338 336 336 334 337 332 334 334 332 330 333 335 335 335 334 333 333 333 333 333 333 333 333 332 332 333 333 331 329 328 326 324 320 328 328 329 328 328 327 327 327 331 328 329 330 331 331 331 332 334 335 334 333 333 333 334
338 340 341 342 343 343 344 344 344 345 346 346 345 344 344 334 334 333 333 335 336 336 334 331 330 331 332 330 333 340 339 338 339 337 332 337 329 326 328 331 334 336 333 336 335 334 333 334 333 333 333 333 334 332 330 329 328 327 324 325 321 327 327 328 329 328 328 328 328 328 329 327 329 330 331 330 331 332 334 334 334 334 334 333 334
335 336 339 341 341 342 343 343 343 344 345 345 345 345 345 338 342 343 343 340 335 333 338 344 342 345 330 339 341 340 339 338 338 338 337 338 335 324 326 330 332 332 335 334 336 337 335 333 333 333 333 333 332 334 332 326 324 324 322 318 326 327 329 328 328 327 328 328 328 329 327 328 330 331 331 331 329 332 334 335 334 333 334 334 333
334 335 337 339 340 341 342 342 343 343 344 344 344 344 343 342 342 340 341 335 341 342 343 341 343 344 344 342 340 340 339 338 337 337 338 329 334 324 326 328 330 330 332 334 335 336 335 333 333 334 335 333 335 334 333 332 331 323 320 325 327 327 328 328 328 328 328 328 329 328 327 328 330 331 331 332 330 331 333 334 334 333 333 333 333
334 335 336 338 339 339 341 341 341 341 341 343 342 342 342 341 342 340 339 341 341 342 342 340 340 342 343 341 340 340 340 339 337 335 335 337 335 324 323 325 326 327 327 332 331 332 332 333 334 333 334 332 334 331 331 330 329 329 330 328 327 328 328 327 327 327 328 329 328 328 327 329 331 332 332 331 330 330 331 333 334 333 333 333 334
335 336 336 337 338 338 339 340 341 342 340 341 340 340 341 341 341 340 338 339 339 340 339 339 339 340 342 341 340 340 341 339 339 338 335 334 335 335 335 334 335 335 326 334 334 335 333 333 334 332 333 333 332 331 331 329 329 329 328 328 328 328 328 328 327 327 328 328 330 325 325 328 330 332 332 332 332 333 329 331 334 334 334 333 333
336 335 335 336 337 338 339 339 340 340 339 340 339 340 340 339 340 340 338 338 339 338 337 337 337 338 340 341 340 339 339 338 339 338 335 334 334 333 332 333 333 333 334 333 333 333 332 332 332 332 331 331 330 330 330 329 328 327 326 327 328 328 328 327 327 327 327 328 329 323 323 325 327 330 332 332 332 333 333 330 331 334 334 334 333
334 334 336 336 337 338 338 339 338 338 338 339 340 339 339 340 340 340 338 336 337 336 335 336 336 337 338 340 338 338 339 338 337 337 335 335 332 332 331 332 332 332 333 331 332 331 330 330 330 331 331 331 330 330 329 328 328 327 327 326 325 326 328 328 327 327 328 328 326 321 323 326 328 331 333 333 333 333 332 334 332 332 333 333 334
335 334 335 336 336 337 338 338 337 337 336 338 338 339 339 339 339 338 337 335 335 335 334 335 336 336 337 336 336 336 336 337 337 336 335 336 334 333 332 331 331 331 332 332 330 330 329 329 330 330 330 330 329 330 328 327 327 328 326 326 326 325 326 327 327 328 328 328 328 324 321 324 326 328 330 332 333 333 333 332 333 333 334 334 333
334 334 335 336 337 336 337 337 337 336 336 336 336 338 338 338 338 338 337 333 336 336 335 336 335 336 336 336 335 333 334 334 335 335 336 335 335 334 333 331 331 330 331 331 331 330 329 329 329 328 328 328 328 328 328 327 327 327 326 326 325 325 325 326 327 328 328 327 327 326 320 322 324 327 330 331 333 333 334 333 334 334 333 333 334
334 335 335 335 337 337 336 336 336 336 335 335 335 336 337 336 336 337 337 335 336 335 336 335 335 335 334 336 335 334 333 333 334 335 335 334 334 335 334 332 331 331 330 329 330 330 328 328 328 327 327 327 326 326 326 326 326 326 325 325 325 324 325 325 327 327 328 327 327 327 319 320 322 324 327 329 332 333 333 333 334 334 333 333 333
335 335 336 336 337 336 336 336 336 335 335 334 334 335 336 336 335 336 336 335 335 335 335 335 335 335 335 335 335 334 333 333 333 333 333 334 335 335 334 332 330 331 331 329 329 329 329 328 327 326 326 325 326 326 326 325 324 324 325 325 325 325 325 326 326 327 327 326 326 326 327 319 320 322 325 328 330 332 333 333 333 334 334 335 335
334 335 336 337 337 336 335 336 336 335 333 334 334 334 335 335 336 336 336 336 335 335 334 334 333 335 336 335 334 334 333 332 333 333 333 332 331 331 332 331 330 331 331 330 329 330 329 329 329 329 328 327 326 326 326 325 325 325 325 324 325 324 325 325 327 326 327 327 326 325 325 326 320 319 322 325 328 330 332 333 333 333 334 335 335
335 336 336 337 336 336 336 335 335 335 334 333 333 333 334 335 335 336 336 336 335 334 334 334 334 335 335 335 335 335 333 332 332 333 332 332 332 332 332 332 333 333 333 331 331 331 330 329 328 328 327 326 324 324 325 324 324 324 324 324 323 323 324 325 326 327 327 327 327 327 326 326 326 320 318 320 323 327 330 332 333 333 333 334 335
335 336 336 335 336 337 336 336 336 334 334 333 333 333 333 334 335 336 335 336 334 334 333 335 334 334 335 335 335 335 334 333 332 331 332 331 331 330 331 331 332 333 331 330 330 330 329 329 328 327 323 325 324 324 323 322 322 323 323 323 323 323 325 325 325 325 327 327 328 329 328 328 328 329 328 319 319 323 327 330 332 333 333 333 334
334 335 335 335 335 336 336 335 335 335 334 333 332 333 333 334 334 335 335 335 334 334 334 334 334 334 334 333 333 333 333 333 332 330 330 331 330 329 329 329 330 331 331 331 330 330 329 328 327 325 325 325 324 324 323 322 322 321 322 323 323 323 324 324 325 325 325 326 327 328 328 328 329 329 329 329 321 319 323 326 331 332 333 333 333
332 334 335 335 335 336 336 335 335 335 334 333 333 332 332 333 334 331 333 334 334 335 334 334 334 333 332 332 333 332 332 332 332 331 330 329 328 329 329 330 330 330 331 330 330 327 327 326 327 326 324 323 323 324 324 323 322 321 323 323 322 322 323 324 324 324 325 325 325 326 327 328 328 329 324 328 328 326 320 323 326 330 331 332 333
331 332 332 333 334 335 335 335 335 335 334 333 333 332 332 332 333 333 333 333 333 334 334 334 334 333 333 332 332 332 331 332 331 331 330 330 329 328 328 329 330 329 329 329 330 329 329 328 327 328 326 323 324 324 324 323 323 322 322 323 323 322 323 323 324 325 326 324 324 325 326 327 327 319 327 328 328 328 323 319 322 325 326 328 331
332 331 331 331 332 333 335 335 336 336 335 334 333 332 332 332 332 333 332 332 333 333 334 334 333 333 333 332 332 332 331 331 331 331 330 330 330 329 329 328 328 327 327 326 326 327 328 327 325 327 326 325 324 322 321 322 322 322 321 322 323 323 322 322 323 322 324 323 323 323 324 326 326 327 327 327 327 327 328 324 319 320 320 321 325
331 331 331 331 331 331 332 334 334 335 335 335 334 333 332 332 332 332 332 332 332 332 332 332 332 333 333 333 332 331 331 331 331 330 330 329 329 329 329 330 328 327 326 325 326 326 326 326 324 323 324 324 323 323 322 322 321 322 322 322 322 322 323 324 323 322 322 323 323 322 324 324 325 326 327 327 327 327 327 327 327 325 323 317 321
330 330 330 331 331 331 331 332 333 333 335 334 333 332 331 330 329 330 329 329 330 330 331 331 332 332 332 332 332 331 332 331 331 330 330 329 329 329 329 330 329 328 326 326 325 325 325 324 324 323 323 323 324 324 323 322 321 321 320 320 321 321 321 322 322 322 322 323 323 323 323 324 324 325 325 326 325 326 325 325 323 326 326 322 317
329 330 330 330 330 330 330 330 332 333 333 333 332 331 329 329 329 328 328 329 329 330 330 330 331 331 332 332 332 331 331 332 330 331 330 327 329 330 330 330 330 328 327 326 327 327 327 326 324 324 323 321 322 324 324 325 320 318 319 319 320 322 322 323 323 323 323 324 324 323 323 323 324 325 325 325 325 324 325 324 324 325 325 326 324
324 327 328 329 330 330 330 331 331 331 332 332 333 332 332 331 330 329 329 330 330 329 329 330 330 330 331 331 331 331 331 331 330 331 330 330 329 329 330 330 329 328 328 328 328 325 327 326 325 323 324 322 321 323 323 323 317 315 313 315 318 321 322 323 322 323 324 324 324 324 324 324 324 325 325 325 324 324 324 324 324 324 324 324 325
321 325 327 329 330 330 330 330 331 331 331 332 332 332 334 333 332 332 332 331 333 333 333 332 332 331 331 330 330 331 331 330 330 329 329 329 329 329 330 330 330 329 327 326 326 326 326 326 325 324 323 323 322 323 322 322 316 317 317 314 312 313 318 320 322 323 323 324 325 324 325 325 325 326 326 325 324 324 324 324 324 324 323 323 323
319 320 321 325 327 329 329 330 330 331 331 331 330 334 335 335 335 334 335 333 332 333 333 333 333 332 330 331 331 331 330 330 330 330 329 329 329 329 330 330 330 329 328 326 326 325 326 326 325 324 324 321 322 321 322 322 319 318 312 313 314 312 308 312 318 322 323 324 325 325 325 325 326 326 326 324 324 324 324 324 323 323 323 323 323
319 319 321 322 324 327 329 330 330 330 331 330 331 331 333 333 333 333 333 331 331 330 329 329 330 330 330 331 331 332 331 330 330 330 329 328 329 329 329 330 330 330 329 327 327 327 326 327 326 324 324 322 321 322 322 322 321 321 317 314 313 312 311 313 314 314 319 319 322 324 324 325 324 325 324 324 324 324 324 324 324 323 323 324 324
320 321 322 322 323 325 327 329 330 330 330 331 331 330 330 330 329 328 326 326 325 327 326 327 329 329 329 331 333 333 332 331 331 331 330 328 329 329 330 329 330 329 329 328 328 327 327 326 326 326 325 325 323 322 321 323 322 321 321 320 317 311 314 317 313 308 317 317 319 320 322 322 324 323 323 323 323 323 323 323 324 323 323 323 324
322 323 323 321 321 323 326 329 329 330 331 331 331 329 329 329 328 329 328 328 327 329 331 331 331 331 332 331 332 333 333 332 331 331 331 330 329 330 330 329 329 330 329 328 327 327 328 328 327 326 325 325 324 320 321 322 321 321 321 320 319 320 320 316 310 313 310 317 317 320 318 321 321 322 322 322 323 323 323 323 323 323 323 323 323
323 325 322 320 320 321 323 326 327 328 330 331 330 329 328 328 328 328 328 328 328 328 331 331 333 332 331 332 332 332 332 332 332 331 331 330 330 329 330 329 329 329 328 328 328 328 329 329 328 327 326 325 324 321 321 322 319 318 320 319 319 319 319 319 318 314 312 310 313 317 317 318 320 320 320 321 322 322 322 323 323 323 323 324 324
324 323 323 322 322 321 322 323 324 326 328 330 329 330 328 328 328 328 327 328 329 330 330 331 331 331 330 331 331 331 331 332 332 332 332 331 329 329 329 329 329 329 328 328 329 329 328 328 327 326 325 325 325 324 323 322 322 321 320 317 318 318 318 318 318 317 313 311 311 313 313 317 317 317 318 320 320 322 323 323 324 324 323 324 324
322 324 322 322 323 322 321 320 322 324 326 328 329 329 329 327 328 328 327 328 328 328 329 329 329 330 329 329 329 330 330 330 331 331 331 331 331 330 329 329 329 328 327 328 328 328 328 328 328 327 326 325 325 324 323 323 323 322 322 321 317 316 316 315 316 316 315 314 311 312 314 313 312 315 319 319 320 320 322 322 323 323 323 323 324
322 322 322 322 322 321 320 319 320 322 324 326 328 328 329 329 327 328 328 328 329 328 327 327 328 328 327 328 328 329 330 329 330 330 331 331 331 330 330 329 329 328 327 328 327 327 328 328 328 328 327 325 324 324 323 323 323 322 323 321 319 318 315 314 314 315 314 313 311 311 313 314 314 313 317 319 319 320 320 321 321 322 322 323 323
Wind_Speed
14 15 14 16 14 15 15 14 13 12 13 13 14 14 14 14 13 12 12 12 13 13 13 13 13 12 12 12 12 12 11 11 11 11 9 10 10 9 10 10 10 12 11 11 11 9 11 11 9 10 10 11 11 11 13 14 13 14 14 15 15 15 15 15 13 14 13 14 12 12 11 12 12 12 12 12 11 10 7 8 5 7 9 10 13
18 15 13 15 13 15 15 15 13 12 13 13 14 14 14 13 12 12 11 12 12 12 13 12 11 11 12 11 10 10 10 10 10 9 11 11 10 10 9 9 10 11 10 10 10 11 12 11 11 11 10 10 11 11 12 13 13 13 14 15 14 14 14 14 14 13 12 12 12 12 11 12 11 11 11 11 12 11 8 9 5 7 9 12 12
17 15 13 15 13 15 15 14 14 13 13 14 13 13 12 12 12 12 12 12 12 12 12 12 11 10 11 11 10 10 10 9 9 11 10 9 9 9 10 10 10 10 10 11 11 12 11 12 11 11 11 11 10 10 10 12 11 12 13 13 13 13 14 14 13 11 11 10 9 9 10 12 11 10 11 11 11 11 8 10 9 9 9 11 11
18 14 14 14 13 13 15 15 14 14 14 13 12 12 13 12 12 12 12 12 12 11 12 12 11 10 10 11 11 11 10 11 9 9 9 10 9 9 9 9 10 10 10 11 11 10 10 10 10 10 10 11 11 11 11 11 10 11 11 12 12 13 13 13 11 11 9 8 5 4 6 7 9 10 10 11 11 12 9 11 10 11 11 11 11
16 14 14 15 15 14 14 14 15 15 13 13 12 10 11 12 12 13 12 12 11 11 10 11 11 9 8 9 10 9 7 9 9 9 8 9 9 9 9 9 9 9 9 10 11 11 11 11 10 11 11 11 11 10 11 11 11 11 11 11 12 13 12 11 10 9 8 5 5 3 6 7 7 9 10 11 11 10 10 10 10 10 9 11 11
14 14 14 14 14 14 14 14 15 15 13 12 11 10 10 11 12 13 12 12 12 11 11 11 10 10 9 9 10 10 9 10 10 9 9 8 8 7 7 7 9 9 9 9 10 10 9 9 10 11 10 10 11 11 11 11 10 10 10 11 11 12 11 10 9 7 4 3 2 6 6 6 6 6 9 10 11 9 10 9 10 9 9 10 10
15 12 13 13 12 14 14 14 15 15 14 13 11 11 10 10 12 12 12 12 11 11 10 10 10 10 9 7 8 10 8 9 8 8 8 8 8 8 9 8 8 7 7 9 10 10 10 9 10 10 9 9 10 9 10 10 10 9 9 10 10 10 10 9 7 5 6 3 6 5 6 6 6 5 8 9 8 10 10 10 9 9 7 9 9
12 11 12 12 12 14 14 13 13 14 14 13 12 11 11 10 10 10 12 11 12 11 10 9 9 9 10 7 8 9 9 9 9 9 9 8 8 7 7 7 8 7 7 8 9 9 9 9 9 9 9 9 9 9 9 8 9 9 9 9 10 9 9 8 6 4 6 4 4 5 5 6 5 5 8 7 8 7 8 8 8 9 9 8 4
13 13 12 11 11 16 13 13 12 14 14 13 13 12 11 10 10 9 9 11 11 11 10 10 9 10 10 9 9 9 9 9 9 8 8 8 8 7 6 7 8 8 7 7 8 8 8 8 8 9 9 9 8 8 8 8 8 8 8 8 9 9 8 6 4 7 2 4 4 4 4 4 4 5 7 6 7 7 7 5 9 8 7 5 6
13 12 11 10 12 14 13 13 12 14 14 13 13 12 12 10 10 9 9 8 8 11 11 10 9 9 10 10 9 9 7 8 9 9 8 7 6 8 8 8 7 7 8 7 7 8 8 8 8 8 8 8 8 8 8 8 8 7 7 8 7 8 7 4 1 3 3 4 5 5 5 8 4 5 6 6 7 8 8 11 10 8 6 7 8
13 12 11 10 14 13 12 12 12 13 13 13 12 12 11 10 9 9 9 9 10 11 10 10 10 10 9 9 10 8 9 7 7 7 8 8 7 6 5 6 6 7 6 7 7 8 8 7 7 7 7 7 7 7 6 7 7 7 7 7 7 6 6 3 8 4 3 3 4 4 5 4 3 4 6 6 6 6 4 4 5 5 6 7 6
13 11 11 9 13 12 11 11 12 12 13 12 11 10 10 10 9 9 9 9 10 10 11 10 10 10 9 7 9 10 10 9 9 8 6 7 6 7 7 7 6 6 7 6 6 7 7 7 7 6 6 7 6 6 5 6 7 7 7 7 7 6 4 3 3 2 3 3 4 3 4 2 5 6 4 5 6 6 6 5 5 5 5 6 7
13 11 11 10 13 10 11 10 11 11 11 11 10 10 10 9 9 9 9 9 10 10 10 10 10 10 10 8 8 8 9 10 9 8 8 7 6 6 5 5 5 5 6 6 6 5 5 6 6 6 5 6 6 5 5 5 6 7 7 7 7 6 3 3 0 1 2 3 2 1 2 3 3 6 4 3 5 5 5 4 5 4 5 5 6
13 12 11 11 11 11 9 10 10 10 11 10 10 10 10 10 9 9 8 9 7 9 11 10 10 9 10 9 8 7 7 9 8 8 9 8 7 6 6 6 5 5 6 6 5 5 5 5 5 5 5 5 5 6 6 6 6 6 7 7 6 5 5 3 1 0 1 1 2 2 1 2 5 5 3 2 3 3 4 4 3 4 4 5 5
12 13 11 11 11 14 11 9 10 8 10 10 10 10 10 10 9 9 9 9 8 10 12 11 10 9 10 10 9 7 4 9 7 8 7 8 7 7 6 5 6 6 5 5 5 6 5 5 5 5 5 4 5 6 6 6 6 6 6 5 5 3 4 1 1 1 1 0 0 1 1 1 7 3 3 2 2 2 2 3 3 3 2 4 5
11 12 11 11 11 12 11 10 8 9 9 9 10 10 10 10 8 8 9 8 8 8 10 11 11 10 10 9 9 8 6 3 5 6 5 7 8 8 7 7 5 5 5 5 5 5 4 5 5 4 4 4 4 5 6 6 6 6 5 5 4 2 1 6 2 1 1 1 0 1 1 1 4 5 3 2 1 1 2 2 2 3 3 3 5
11 11 11 11 11 12 12 12 10 9 9 10 10 10 9 8 7 5 5 8 8 8 10 9 10 10 8 7 7 7 7 5 5 6 5 3 3 2 8 7 6 6 6 5 5 5 5 5 4 3 4 4 4 4 5 6 6 5 5 5 3 3 1 6 2 3 1 0 2 2 1 2 4 6 5 4 3 2 2 2 3 3 3 4 5
10 11 10 11 11 11 11 12 11 10 11 8 9 10 8 9 8 5 4 7 5 6 5 7 7 8 7 7 6 6 6 5 5 5 5 4 6 5 3 8 6 6 6 6 6 6 5 5 4 4 4 4 3 3 4 5 5 5 4 4 4 2 2 5 4 3 2 1 3 2 3 4 5 5 6 6 5 5 4 4 3 3 3 3 5
8 10 11 11 13 12 11 11 12 12 12 10 9 9 10 9 8 6 5 6 7 6 4 6 4 5 7 7 7 6 6 5 5 4 5 4 5 4 1 4 6 8 7 6 7 6 6 6 5 5 5 5 5 3 3 4 5 4 3 2 3 2 1 5 4 3 3 4 3 3 1 4 6 6 6 6 7 7 7 6 6 4 4 5 5
9 10 11 10 11 12 11 9 11 13 12 11 11 10 9 10 8 8 6 7 8 7 5 6 5 5 5 8 8 7 6 6 4 5 5 5 6 6 5 2 4 2 3 8 8 7 7 6 7 7 7 6 5 4 4 5 5 4 3 2 2 3 4 5 3 4 4 3 3 3 2 3 6 7 7 6 6 9 8 8 8 7 6 6 7
7 9 10 10 11 11 13 10 12 13 13 12 10 11 9 9 7 7 7 8 9 9 7 7 6 6 6 7 8 8 8 7 6 8 6 7 6 5 5 5 4 3 1 2 6 9 8 8 8 8 7 7 5 4 4 3 3 3 1 2 3 5 5 4 4 4 4 4 3 4 3 5 8 8 8 6 6 8 9 9 9 8 8 8 8
9 9 11 11 10 11 12 13 10 12 11 10 9 9 8 9 10 9 8 8 8 8 8 8 9 9 8 7 9 9 8 8 8 9 7 7 5 5 5 5 6 7 3 3 2 3 7 8 9 9 8 8 7 5 5 4 2 2 2 3 5 5 4 5 4 5 5 5 5 1 1 5 8 8 8 9 6 7 9 10 9 9 9 9 9
10 9 10 12 9 9 11 12 9 9 9 8 7 9 10 9 10 9 8 10 10 9 9 9 9 9 10 10 9 9 9 8 8 7 6 5 6 8 5 5 5 5 7 3 3 4 5 9 9 8 6 6 6 6 5 4 4 5 5 6 6 5 4 5 5 5 5 5 5 3 4 6 8 9 8 9 9 8 8 10 10 10 10 10 10
11 9 9 10 10 9 12 10 10 10 11 8 8 9 9 9 8 9 9 8 9 9 8 8 9 9 9 9 8 9 9 9 6 9 5 6 6 6 6 5 4 5 4 5 4 3 1 1 3 3 5 7 7 6 6 6 5 5 4 4 5 5 5 6 6 6 5 5 6 3 4 7 8 9 10 9 10 9 8 9 10 10 11 11 11
10 9 9 10 12 12 10 10 10 9 10 8 8 9 10 9 8 8 9 8 8 8 7 7 8 9 10 9 9 8 9 9 9 8 8 9 8 8 7 7 8 8 8 8 8 6 5 8 7 7 8 7 7 7 7 6 6 6 6 5 5 6 6 6 6 6 6 6 6 6 5 7 8 9 10 11 12 12 10 9 10 11 12 12 12
9 10 11 11 12 12 12 11 11 10 10 9 9 9 9 9 8 8 9 9 8 8 6 6 7 9 9 10 9 10 10 9 9 8 9 8 8 7 8 8 8 9 8 8 8 8 8 8 8 8 8 7 7 7 7 7 7 6 6 6 5 5 6 6 6 6 7 6 6 8 7 8 8 9 11 12 13 14 14 12 11 11 12 13 13
10 12 11 10 11 12 13 12 11 11 11 11 10 9 10 10 9 9 10 10 9 9 7 7 7 8 10 10 10 10 9 9 10 10 10 9 9 8 8 8 9 9 8 8 8 8 8 8 7 8 8 8 8 8 8 8 8 8 8 7 8 7 6 6 7 7 7 7 7 9 8 9 9 10 11 12 13 15 15 15 14 14 13 13 13
10 11 11 11 11 13 13 13 12 11 9 10 11 10 10 11 10 8 9 10 10 10 10 9 7 8 10 10 10 10 10 9 9 10 9 9 10 9 8 9 9 9 8 8 9 8 8 8 8 8 8 8 9 9 9 9 9 9 9 8 8 8 6 6 7 7 7 7 8 9 10 10 10 10 11 13 14 15 17 16 15 16 15 15 15
11 12 11 12 13 12 14 15 13 12 10 10 11 10 10 10 11 10 10 11 11 11 11 10 9 8 9 10 10 10 10 11 10 9 9 10 10 9 9 10 9 9 8 9 9 9 8 8 7 8 8 8 8 8 8 9 8 8 9 9 9 9 9 8 7 7 8 8 8 8 11 10 11 12 12 13 14 14 16 17 18 18 17 17 16
12 11 11 12 12 13 14 16 15 13 12 10 10 11 11 11 11 11 11 9 12 12 12 11 11 10 8 10 10 10 10 9 10 9 10 10 10 10 10 10 10 9 9 10 9 9 9 9 8 7 7 8 8 8 8 9 9 9 9 10 9 9 9 9 8 7 8 8 8 8 10 12 11 13 13 14 14 15 16 16 18 19 19 19 18
11 12 11 10 10 12 14 15 15 12 12 12 11 12 12 12 11 11 11 12 12 12 12 12 11 11 11 9 10 11 10 10 10 10 10 10 10 10 11 11 10 9 10 9 9 9 9 10 9 8 7 8 8 8 8 9 10 9 9 8 9 8 9 9 9 9 9 8 8 9 9 13 13 12 14 15 16 16 16 17 18 19 20 20 20
12 13 11 10 10 13 13 14 15 14 13 14 12 12 13 12 11 11 12 12 12 12 12 12 12 12 12 12 11 9 9 9 10 10 10 10 10 11 11 11 10 9 10 10 10 9 9 9 10 9 9 9 8 8 8 9 9 9 9 10 10 10 9 9 9 11 11 9 8 8 8 9 13 15 15 16 17 17 17 18 18 19 20 21 21
9 11 11 11 12 12 12 13 14 15 15 15 14 12 12 12 12 12 12 11 12 12 13 13 12 12 11 12 12 12 11 11 9 10 11 11 11 11 11 10 8 9 11 11 12 10 10 10 11 10 10 9 10 11 9 10 11 11 11 12 11 11 10 9 10 11 12 12 10 9 9 9 9 13 17 17 17 18 19 19 19 19 20 22 22
8 8 11 12 10 8 9 10 13 15 16 14 14 13 13 12 12 12 12 13 12 12 13 13 12 11 12 12 12 13 12 11 11 10 10 10 11 11 12 11 10 11 11 10 10 10 10 11 11 10 10 9 10 12 11 11 11 11 11 12 12 11 10 11 10 10 11 12 12 11 9 9 9 9 9 16 19 17 20 20 20 20 21 21 23
8 9 12 13 12 10 9 9 12 14 14 15 15 14 13 13 13 12 12 13 13 13 12 12 12 11 11 12 13 12 13 13 12 11 11 10 10 10 10 11 10 10 9 9 10 10 10 11 10 11 11 11 11 10 11 11 11 11 11 10 11 11 11 11 10 11 13 12 12 12 12 11 10 10 10 9 14 20 19 20 21 21 21 22 22
13 11 10 10 13 13 12 11 12 15 14 15 15 14 14 13 12 12 12 13 14 13 11 11 12 12 11 12 13 13 13 14 13 12 11 12 11 10 10 9 11 10 10 10 10 12 11 11 11 11 11 12 11 12 10 11 11 14 12 12 11 11 11 10 11 11 12 12 12 12 12 11 12 11 11 10 10 11 19 20 21 22 22 22 23
11 11 11 10 12 13 13 14 14 14 14 14 15 14 13 14 14 13 13 13 13 13 12 11 12 13 12 12 12 13 14 14 14 14 12 12 12 12 12 11 10 11 11 11 11 11 11 10 11 12 13 12 12 13 10 11 12 13 12 12 12 12 12 10 11 11 12 14 14 13 13 13 12 13 12 11 11 11 13 19 19 21 21 21 22
10 11 11 11 12 11 12 13 12 12 11 12 13 13 13 13 12 12 13 13 14 13 12 11 13 13 12 13 13 13 13 14 15 14 13 13 12 12 13 13 12 12 11 11 11 10 11 11 12 12 13 12 12 13 13 13 12 12 12 12 12 13 14 13 11 11 13 14 13 13 12 12 12 12 11 11 11 11 11 13 18 20 21 21 21
9 10 11 11 10 10 10 11 12 12 12 11 12 13 13 12 12 12 13 14 13 12 12 12 12 13 12 13 13 13 13 14 15 15 14 12 12 13 13 14 13 12 12 12 12 12 12 12 13 13 12 13 12 12 12 11 11 10 11 14 13 13 12 13 12 12 11 12 14 14 12 13 12 12 12 11 10 10 11 10 9 9 13 22 22
9 10 11 11 12 11 10 10 11 12 11 10 10 11 11 12 12 12 13 13 12 11 11 12 12 12 12 14 14 13 14 14 15 15 15 13 13 13 14 14 13 13 13 13 13 12 13 14 15 15 14 12 11 12 12 12 12 13 14 14 14 14 16 14 14 15 14 15 14 12 12 12 12 12 12 11 10 10 10 11 11 10 10 14 22
10 10 11 12 13 12 11 13 10 11 10 10 10 11 12 12 12 13 13 11 11 12 12 12 12 13 13 14 14 14 15 15 15 15 15 15 14 14 14 15 14 14 14 15 15 15 14 13 12 12 14 14 12 11 12 10 12 13 14 15 14 13 16 16 17 15 16 14 12 12 12 11 12 11 11 10 11 10 10 11 10 10 11 9 11
10 10 12 12 12 12 13 11 9 10 12 12 11 11 12 11 10 11 11 11 11 11 12 12 13 12 14 14 14 15 15 15 15 15 15 15 15 14 15 15 14 14 15 15 15 15 15 14 12 12 12 13 13 11 11 9 11 12 10 9 9 10 13 14 16 16 16 14 13 12 12 12 12 11 10 10 10 11 11 10 11 11 11 10 10
10 9 11 11 11 11 12 11 10 10 11 12 11 12 11 12 11 9 9 9 10 10 11 11 12 13 14 15 16 16 16 16 16 14 14 15 16 14 14 14 15 14 14 15 15 16 15 16 16 13 12 12 12 11 12 13 10 8 9 8 9 6 5 8 11 15 14 13 12 13 12 12 13 11 9 9 9 10 10 10 11 11 11 11 10
7 9 10 11 9 10 10 11 12 12 10 12 13 12 11 11 11 9 8 8 7 8 11 12 12 13 15 15 16 16 18 16 16 16 15 15 16 16 15 14 15 14 14 14 15 16 16 15 15 16 14 13 12 13 13 13 13 8 7 9 5 2 9 7 6 6 11 13 12 12 11 11 11 11 9 10 10 9 9 10 11 11 12 11 11
9 9 9 9 8 11 12 12 12 12 12 12 13 11 9 9 9 10 8 9 11 11 11 12 13 13 14 15 16 16 16 16 16 17 16 17 16 16 16 15 15 15 14 15 15 16 16 15 16 15 17 15 13 12 11 14 16 15 9 4 5 5 7 6 3 8 9 8 12 12 10 11 10 9 9 10 9 9 9 10 10 10 11 11 11
10 10 10 9 9 10 11 12 11 10 11 13 12 10 10 9 9 9 10 12 12 12 13 14 11 13 14 13 13 14 15 15 16 17 17 16 17 18 17 16 16 15 15 15 14 14 16 17 16 15 16 18 15 12 13 12 15 16 16 14 9 8 6 2 4 5 3 6 6 9 11 11 9 9 9 9 9 9 9 9 9 10 10 10 10
11 9 6 8 11 10 10 11 10 9 9 10 11 10 10 10 13 12 12 11 11 10 12 10 9 10 10 12 12 13 15 15 15 16 17 17 17 17 18 17 16 15 15 15 15 17 15 15 14 15 16 13 14 15 16 12 10 14 15 19 17 13 9 6 7 6 11 3 7 6 7 8 9 10 9 10 10 9 8 8 9 9 9 10 10
11 6 6 8 11 11 10 10 9 9 7 8 10 11 11 11 12 13 12 12 12 13 12 10 9 9 10 11 10 11 13 14 14 15 15 16 17 17 17 16 16 16 15 15 17 16 14 14 14 16 14 14 16 16 14 13 13 12 14 17 18 16 17 17 15 11 9 11 11 3 3 6 6 7 9 9 9 10 9 8 9 8 8 9 9
8 7 8 8 7 8 9 8 9 9 9 10 11 12 12 11 11 11 11 11 13 12 11 9 8 9 11 10 11 11 11 13 14 15 15 16 15 16 17 17 17 17 15 16 17 17 18 16 15 14 16 16 15 15 14 14 14 14 11 13 15 15 14 16 15 14 13 12 14 12 9 8 9 12 11 10 9 9 9 9 8 9 8 9 9
9 9 8 7 7 7 8 8 9 8 8 10 11 12 13 12 11 12 14 12 11 11 11 10 9 9 10 11 11 11 11 11 12 15 14 15 16 16 15 18 18 17 15 16 17 17 17 17 18 15 15 16 15 15 17 15 13 14 15 12 11 13 13 13 15 15 15 16 14 10 10 5 7 8 8 11 11 11 10 9 9 9 9 9 8
8 8 8 7 6 6 6 8 9 8 9 10 11 12 12 12 12 13 15 14 14 12 10 11 10 10 11 11 11 11 10 11 11 12 14 15 15 16 16 17 17 16 15 17 17 17 16 17 15 16 16 18 15 17 13 16 15 15 15 14 14 13 13 13 13 13 14 13 13 16 15 12 10 11 11 8 8 10 11 11 11 10 10 9 9
Wind_Direction
161 153 151 154 160 154 147 147 148 146 138 135 136 139 138 139 138 135 132 128 125 121 117 116 114 111 109 112 111 112 112 107 101 99 102 95 100 102 97 92 85 77 75 79 93 100 92 78 78 80 76 76 79 82 82 77 75 79 81 79 73 72 71 68 62 52 53 62 68 91 86 85 79 80 79 77 74 64 43 23 58 95 84 77 74
159 155 152 156 157 152 149 148 149 148 142 136 136 140 140 138 134 132 131 127 124 120 117 117 115 114 114 115 114 116 116 113 115 116 105 107 106 99 98 95 97 96 105 112 94 87 84 87 82 79 79 81 82 86 84 82 83 85 81 80 79 76 71 68 60 53 51 50 53 54 72 74 77 81 79 73 72 65 49 44 54 92 84 78 72
152 152 154 155 157 149 150 148 149 147 143 140 140 140 136 135 134 133 130 131 128 124 120 117 112 109 112 112 110 107 106 104 101 103 101 103 99 98 105 117 118 110 102 92 99 89 87 83 82 79 80 84 83 84 87 88 88 86 87 84 80 78 75 71 63 57 49 47 48 70 75 79 73 76 77 73 71 66 57 64 61 84 88 81 75
151 155 155 151 161 148 150 149 149 147 145 141 139 144 139 137 137 135 135 135 132 129 127 120 116 119 122 124 120 123 127 128 116 112 119 120 121 124 118 107 99 105 113 112 103 99 92 84 77 77 80 87 90 93 93 93 96 91 89 86 80 78 77 73 69 63 54 41 21 60 72 89 85 75 78 79 75 73 66 76 80 83 86 81 77
151 154 154 155 159 150 152 150 150 150 147 144 140 138 144 139 141 140 141 136 132 130 127 122 120 122 120 115 110 111 110 108 112 120 122 119 114 112 117 109 109 118 116 107 100 90 84 84 82 82 88 90 93 97 98 99 98 100 90 84 79 78 76 72 70 65 58 37 334 89 84 81 88 80 82 82 82 74 76 87 88 82 82 77 74
152 156 156 158 158 153 153 152 153 152 149 144 140 140 143 148 145 146 145 140 136 134 130 132 131 124 125 123 131 127 136 139 142 136 117 108 104 108 101 109 118 115 118 118 112 108 104 91 85 85 90 94 97 98 101 100 98 98 94 83 83 81 77 71 65 56 41 280 223 80 86 90 88 100 95 87 94 85 83 83 84 85 80 79 78
152 157 158 161 160 152 154 156 156 156 152 147 146 147 150 153 154 155 152 146 145 140 136 135 131 133 126 138 132 129 138 122 116 116 116 126 128 131 131 125 120 125 121 118 121 107 102 98 91 93 93 99 103 105 100 102 105 97 91 87 86 82 76 70 62 37 332 257 73 79 77 75 83 89 87 95 93 97 99 92 83 85 76 66 61
153 158 162 162 164 146 151 157 160 158 154 152 152 154 155 160 166 168 160 157 148 145 142 137 140 136 132 139 135 133 139 142 146 135 136 138 130 120 121 116 120 132 129 122 119 115 111 104 96 93 94 96 104 113 115 106 100 97 91 90 86 81 76 70 62 49 307 73 65 61 76 90 103 90 85 73 83 82 80 77 81 85 76 65 68
160 162 162 164 157 147 151 157 161 161 157 156 159 160 161 163 169 172 175 163 167 153 143 142 142 140 139 147 149 151 156 149 139 131 136 130 123 128 133 129 130 134 136 133 128 123 119 112 101 99 98 95 101 109 114 114 106 96 94 94 87 82 80 67 35 288 128 69 77 72 57 76 83 94 76 76 75 71 57 75 106 97 72 70 77
162 163 163 168 156 146 154 159 163 162 162 162 162 164 163 166 169 175 173 173 159 139 150 148 151 146 150 157 158 145 153 150 144 143 143 132 143 146 145 141 140 139 147 146 136 135 132 122 117 109 98 100 98 107 116 122 114 108 102 96 91 80 77 76 296 33 55 69 77 74 45 338 80 83 84 88 81 69 66 44 41 41 80 85 77
163 165 166 169 157 149 158 163 162 164 164 165 166 166 165 166 172 175 177 168 155 152 157 156 154 154 163 165 151 152 158 154 145 145 150 147 155 148 134 134 138 147 148 153 154 140 140 133 123 120 109 105 100 100 114 121 122 118 115 103 93 86 72 43 272 73 50 57 62 75 100 271 83 63 98 99 97 96 89 104 117 127 111 99 91
166 165 166 168 141 154 162 163 162 163 164 166 166 168 167 167 174 178 179 171 164 165 166 160 159 161 167 172 156 163 162 159 150 156 171 147 153 151 155 150 156 155 161 159 158 154 147 143 137 124 119 109 105 103 114 126 127 128 121 111 102 94 74 355 306 57 57 52 60 45 47 66 54 82 28 113 113 124 124 114 119 110 104 103 102
168 166 167 162 160 156 166 163 163 163 164 165 168 170 169 172 175 181 184 176 176 174 168 165 165 167 167 168 168 178 166 157 157 164 164 156 164 156 159 162 154 155 155 167 163 164 155 146 141 131 123 116 119 120 124 131 132 129 120 117 111 103 94 319 93 39 49 42 58 64 74 77 77 58 45 22 94 106 107 110 113 119 118 121 115
168 170 168 167 165 159 167 162 164 165 163 165 162 172 172 177 179 183 189 187 178 165 168 174 173 175 169 172 179 196 184 159 171 167 162 161 170 164 175 161 170 168 174 167 168 173 170 162 149 141 135 130 131 131 123 119 131 127 120 116 116 117 137 201 59 122 58 38 40 26 46 91 47 65 43 63 166 132 116 110 85 96 117 126 116
169 171 166 170 162 169 167 164 163 168 167 161 160 168 174 181 183 185 190 195 181 171 175 180 180 177 177 174 181 179 165 159 187 162 162 172 172 182 179 174 191 178 171 167 173 180 181 175 169 159 154 153 151 139 128 117 116 119 122 116 115 132 250 243 226 108 144 35 349 288 34 269 30 13 41 31 32 81 91 111 134 124 125 136 131
165 175 169 173 170 171 172 172 165 167 170 162 162 170 172 182 188 188 190 195 186 191 191 180 187 178 179 176 182 178 179 141 109 116 136 172 180 182 178 177 194 175 188 195 183 178 185 195 183 171 171 170 170 149 137 130 120 118 122 124 119 110 314 311 221 262 204 212 237 290 267 43 20 348 345 336 343 311 216 175 161 157 164 152 155
169 179 179 175 178 178 180 181 174 165 171 169 166 171 173 179 189 193 177 172 185 193 202 185 192 177 172 173 179 186 187 164 146 124 126 153 105 56 168 178 194 203 200 198 187 193 204 196 195 184 189 201 186 155 136 136 126 121 117 116 114 107 187 290 264 242 298 84 300 293 302 289 24 331 319 311 287 272 254 256 214 186 189 185 177
174 188 181 180 184 186 184 185 177 176 181 168 169 174 175 181 184 184 174 171 175 192 204 181 202 175 170 173 180 188 194 174 174 145 138 150 107 82 173 174 185 215 212 202 211 204 203 205 206 194 203 213 203 162 138 129 138 123 116 112 112 113 184 272 267 251 253 220 245 236 257 55 334 315 307 297 275 255 239 234 247 206 200 202 198
181 190 192 189 190 190 187 188 183 186 189 189 186 178 181 183 182 184 180 172 173 180 173 187 182 184 170 171 180 185 193 190 183 182 168 156 132 138 133 183 204 200 205 228 215 212 206 210 209 204 199 214 216 184 157 130 124 133 123 111 122 123 186 238 235 262 245 241 237 236 244 20 303 301 301 295 275 248 236 240 237 227 229 228 220
194 201 199 196 197 194 192 193 191 194 196 197 196 191 180 185 186 184 184 178 173 166 166 175 192 175 183 179 177 180 185 195 185 205 192 184 170 215 153 200 215 213 232 216 218 226 219 218 217 211 207 211 215 219 110 102 101 112 140 146 150 221 218 230 235 244 248 252 272 254 114 274 290 294 292 285 273 255 240 236 234 236 232 235 227
196 202 208 201 200 201 193 197 200 200 200 199 203 205 181 178 184 187 185 178 168 166 162 173 185 182 185 190 183 197 197 205 180 215 168 212 185 190 179 184 228 234 152 313 238 214 215 218 222 225 217 216 212 115 126 127 128 116 65 181 192 229 240 246 240 242 244 251 229 248 57 287 281 283 280 272 276 256 245 234 237 231 237 238 237
200 203 206 205 205 207 203 202 203 205 199 202 205 204 196 182 206 201 200 189 179 165 175 203 192 209 179 197 208 208 214 210 219 213 210 207 182 190 193 202 212 242 209 230 279 232 214 227 223 229 228 224 185 215 177 163 175 219 206 276 235 247 237 238 238 243 243 249 243 215 125 273 277 278 276 279 273 264 253 240 242 240 236 237 239
205 205 207 206 205 206 209 204 202 205 203 200 201 204 208 204 213 211 201 205 199 192 205 205 213 211 208 214 217 221 220 223 222 210 222 196 232 167 197 212 209 226 246 218 238 255 229 237 241 240 251 204 211 237 240 241 229 171 227 223 243 245 247 244 245 246 242 246 255 138 236 261 274 279 280 275 268 262 263 249 241 243 239 237 238
207 205 207 209 209 208 209 204 202 202 204 203 202 206 212 213 217 214 214 205 207 208 212 212 216 216 214 217 220 225 223 230 208 159 180 221 215 184 202 213 215 227 239 240 206 225 247 271 257 250 236 239 239 235 238 242 245 260 257 252 246 246 240 243 243 244 244 232 247 172 244 262 270 277 277 269 267 260 258 248 245 245 242 240 239
208 207 211 211 210 211 211 212 208 203 202 206 202 207 215 218 217 220 219 218 211 208 207 210 218 219 219 222 225 227 227 230 230 213 219 230 237 230 212 221 224 226 181 238 239 225 212 238 235 225 241 238 240 241 244 244 247 249 256 262 261 256 249 245 246 247 245 243 236 180 226 255 266 273 275 271 264 262 249 240 245 247 248 243 239
205 210 212 212 211 211 210 212 213 213 203 205 204 209 210 219 217 218 222 222 217 215 210 211 213 218 219 221 221 225 230 228 227 227 229 228 229 236 236 233 233 234 223 237 238 238 240 238 240 244 243 240 243 249 249 255 257 257 256 259 267 268 257 251 246 245 247 247 234 177 211 240 251 263 271 271 267 264 263 253 237 242 245 245 242
207 215 213 214 213 211 211 214 214 214 212 211 211 210 212 220 221 221 220 223 223 218 213 215 214 214 218 219 221 223 227 236 233 230 231 231 232 233 237 236 235 236 236 238 237 239 240 239 241 244 247 250 252 253 252 254 257 259 257 258 260 263 264 260 254 250 247 245 245 178 211 232 243 255 264 266 266 262 262 256 252 244 242 241 242
212 214 214 213 210 211 208 209 211 206 204 210 216 216 216 219 221 218 218 224 222 222 226 222 213 214 216 220 221 227 222 217 229 232 233 234 233 235 239 239 236 236 238 239 239 240 238 238 244 246 249 252 255 254 256 256 256 254 256 258 261 262 262 264 261 256 252 252 252 206 208 225 237 246 251 259 264 263 260 256 256 249 244 244 243
216 214 215 215 213 210 209 209 209 206 205 207 215 219 220 220 222 221 220 221 223 224 226 227 225 218 212 216 219 227 229 230 227 227 230 235 233 231 237 236 235 237 235 237 237 236 235 238 241 244 244 246 249 251 254 259 259 258 257 260 259 260 263 265 263 259 256 255 251 235 198 215 229 239 246 250 257 260 260 256 253 253 252 245 240
214 213 211 215 217 210 212 212 212 211 207 207 214 219 219 220 219 219 221 215 223 225 228 230 231 228 219 211 213 220 227 230 229 227 225 228 229 229 238 237 236 239 239 239 237 238 240 239 237 239 246 247 250 253 254 255 254 254 255 255 254 258 260 261 261 259 255 253 251 253 204 215 217 233 239 244 245 250 254 257 256 254 252 252 247
212 213 212 210 209 213 215 217 216 212 209 210 212 217 219 221 219 218 219 220 222 225 227 231 232 232 231 219 212 214 222 227 230 229 228 225 224 231 239 240 238 239 237 240 240 239 242 242 240 234 237 241 245 248 249 252 253 251 249 249 253 255 258 262 266 262 256 252 252 252 241 209 220 222 233 238 242 243 245 250 253 255 253 251 252
213 214 212 208 208 210 213 216 217 215 211 214 214 217 220 221 220 221 222 222 221 224 227 229 231 233 232 230 224 216 217 226 228 230 234 234 237 239 241 240 237 239 241 241 240 239 242 242 242 241 240 244 249 250 249 252 253 252 252 254 255 257 258 261 265 264 261 257 251 251 249 242 215 221 226 232 237 239 240 241 246 250 252 252 249
215 214 209 208 211 208 212 213 214 216 215 218 219 218 220 223 222 224 225 221 222 224 228 228 230 231 232 230 230 229 229 232 229 228 232 237 240 240 241 237 233 232 240 243 246 242 242 240 244 245 246 246 250 249 249 251 256 258 258 259 259 256 254 255 261 263 262 262 256 250 251 244 245 213 219 228 230 235 238 238 239 242 246 250 249
207 205 207 211 207 206 206 211 213 216 217 219 220 221 221 223 224 225 226 223 221 223 228 230 230 232 232 231 230 231 233 234 235 234 233 236 238 240 241 238 235 236 245 248 244 243 243 243 248 246 241 240 245 248 248 250 252 256 257 258 256 255 252 252 254 260 264 264 263 258 252 251 243 243 227 213 225 227 232 236 236 236 239 243 247
209 206 205 207 204 204 202 208 208 214 213 218 219 221 222 222 224 226 227 226 226 223 226 228 229 230 231 232 229 229 230 232 232 235 236 238 239 241 242 245 247 244 239 233 235 236 236 239 241 241 245 245 245 247 246 250 256 259 260 256 253 253 253 252 251 256 259 262 263 262 260 255 250 246 239 240 215 220 225 229 234 236 234 237 241
215 214 209 203 209 206 202 209 206 211 213 217 219 222 224 225 226 228 232 228 231 228 223 225 231 229 226 230 226 224 225 226 227 228 235 238 241 241 239 239 240 243 243 242 240 242 243 245 246 246 248 248 252 254 253 254 255 262 258 254 255 255 257 255 253 254 259 261 261 261 258 254 252 247 244 242 245 229 214 223 228 233 234 234 235
218 216 213 206 211 210 208 212 211 208 213 215 219 221 223 225 227 229 230 231 229 231 228 221 233 234 229 230 227 222 221 223 222 224 229 233 239 244 245 241 240 240 241 242 241 240 239 235 238 240 247 258 255 250 239 248 255 258 256 257 257 258 259 257 254 255 258 258 258 258 257 254 253 252 249 244 243 246 223 218 224 227 233 234 234
227 222 220 216 216 211 212 214 216 214 211 214 221 222 225 228 229 231 231 231 231 233 232 227 230 231 229 232 228 223 222 220 221 221 225 230 234 237 243 243 241 240 242 243 243 242 240 240 244 241 243 244 248 251 255 255 257 260 262 261 257 256 258 255 254 253 253 254 258 257 255 256 249 245 243 244 245 242 244 223 219 227 230 232 234
230 227 226 225 222 218 213 211 213 215 215 215 223 227 228 230 233 234 233 234 235 233 232 231 230 235 229 229 228 226 225 222 219 219 222 225 229 233 236 240 240 241 240 239 241 241 241 242 244 246 243 244 248 248 251 256 259 261 255 255 259 254 252 247 248 252 253 254 255 254 255 251 251 248 246 242 240 241 242 249 240 222 226 225 229
229 230 229 223 222 221 218 219 213 212 215 212 218 225 227 228 229 230 234 233 232 233 230 234 234 232 231 231 228 226 226 223 219 217 219 221 225 228 233 236 235 235 236 234 235 236 237 238 241 243 246 243 240 247 249 254 260 258 262 267 263 263 259 258 259 255 253 250 249 246 244 244 244 244 242 241 243 243 243 246 244 242 240 222 220
232 227 226 224 221 219 217 221 212 206 208 208 209 217 222 224 227 229 232 231 231 229 231 231 232 235 234 233 230 228 227 225 222 219 221 220 225 231 232 231 231 232 232 233 234 236 237 239 241 236 239 244 244 238 242 239 253 265 265 267 266 256 253 249 250 247 245 245 241 240 239 242 241 240 237 235 236 236 240 240 240 240 240 246 224
233 219 223 225 223 221 223 223 210 207 209 210 210 210 215 218 218 223 228 232 230 227 232 231 230 231 232 231 230 231 227 227 227 223 224 224 225 228 230 230 228 229 231 234 233 233 233 236 233 239 232 234 242 234 231 218 239 247 266 277 272 258 247 242 239 239 239 238 237 235 237 236 237 234 232 231 230 232 232 233 233 236 237 238 241
242 222 224 225 223 220 221 218 214 210 211 211 212 216 211 212 215 221 218 229 232 237 238 237 233 231 230 228 230 231 228 230 228 225 227 228 228 228 230 231 230 229 229 230 229 230 230 230 226 230 239 234 239 238 233 218 240 234 250 283 284 298 232 220 235 238 233 233 229 230 231 233 233 229 230 229 231 227 226 225 228 229 232 232 236
228 234 232 224 221 221 217 212 216 215 214 210 210 218 215 214 214 221 224 231 243 239 242 240 237 233 232 229 229 228 230 233 229 227 227 228 228 229 230 230 231 227 229 231 229 229 227 226 226 229 229 242 235 238 226 223 224 218 240 225 257 271 291 246 224 228 221 228 220 226 222 230 230 229 224 229 230 228 224 223 223 226 226 228 230
228 229 225 215 212 217 214 210 213 214 215 213 209 210 213 216 216 230 239 250 249 248 247 242 234 232 238 233 230 227 230 228 227 226 225 227 228 229 229 231 232 230 229 233 234 232 228 227 225 224 222 227 239 241 226 216 221 218 224 212 223 234 239 288 342 268 196 208 216 221 224 223 225 221 219 228 227 227 226 225 223 224 226 226 228
236 230 219 217 217 221 216 211 214 215 216 214 207 198 207 209 207 212 220 227 235 232 228 229 218 216 222 224 226 221 223 225 227 228 226 225 227 227 228 230 230 231 230 232 235 236 231 228 225 224 228 227 234 241 244 216 218 216 223 234 249 269 306 348 7 289 134 214 207 206 219 221 223 221 222 226 222 220 222 226 223 226 225 226 229
238 234 207 215 223 228 222 212 213 217 216 213 199 193 205 212 214 214 216 217 225 231 230 229 220 219 217 215 217 215 216 217 220 224 231 229 229 229 229 229 231 232 232 233 234 234 234 230 227 224 227 228 224 235 237 236 211 223 221 231 244 257 266 295 272 309 294 233 201 202 215 213 220 224 222 225 222 219 222 220 224 225 225 223 226
238 223 219 221 223 225 221 216 219 220 214 199 197 197 208 212 214 218 220 225 228 239 234 229 221 218 218 216 214 216 215 215 219 219 221 225 229 234 232 231 231 233 232 233 239 241 237 234 226 226 225 225 224 225 234 233 225 229 221 232 236 242 247 250 252 258 275 292 279 200 251 219 222 233 232 232 226 226 228 221 220 221 224 223 223
238 230 226 224 222 227 228 225 226 223 220 206 204 205 209 214 214 217 223 226 232 240 246 239 232 219 225 225 223 223 220 215 216 218 219 221 223 229 231 231 232 232 230 235 239 242 240 237 228 222 222 224 226 228 232 234 229 238 223 224 234 238 240 240 245 241 240 250 264 272 259 214 235 246 236 224 226 229 226 228 223 218 223 225 222
245 243 242 238 232 224 225 222 227 225 223 214 205 211 210 214 218 219 224 230 228 237 243 244 236 236 235 231 232 228 223 218 215 217 219 219 220 220 225 232 231 231 231 232 239 240 238 237 234 229 225 226 229 228 231 235 234 238 239 234 225 231 236 239 237 235 236 234 252 263 269 233 229 242 227 225 224 228 232 233 231 223 226 231 227
247 246 243 233 229 226 226 225 226 226 220 216 209 212 213 214 219 222 225 230 233 236 241 241 237 236 239 235 231 231 227 223 217 214 214 217 221 223 223 225 233 230 228 234 237 239 238 237 235 233 229 228 230 231 227 235 236 236 236 237 237 229 224 226 231 230 227 235 238 249 263 259 250 259 249 209 226 230 229 228 227 224 224 229 230